Погода во Владиславовке

Россия / Республика Крым     45°28′08″N   34°35′43″E
темп.,
°C
ветер,
м/с
пор.,
м/с
влажн.,
%
обл.,
%
осадки,
мм/ч
давл.,
гПа
погр.,
м
12 апреля, пн
пн1200:00+8ю1176100 0.1 102033
03:00+7сз2395100 4.3 1020121
06:00+8с2498100 0.1 1019268
09:00+8св1296100 0.1 1020264
12:00+10юз228577 0.1 1019495
15:00+14зюз2268100 0.1 1019990
18:00+12всв2381100 0.1 1020193
21:00+10вюв1287100 0.1 102143
13 апреля, вт
вт1300:00+10зюз1189100 0.0 102130
03:00+9з3589100 0.0 1021173
06:00+9з1291100 0.0 102158
09:00+10зюз2285100 0.0 1022262
12:00+14юз1166100 0.0 1021941
15:00+15всв116193 0.3 1020888
18:00+12вюв1381100 0.6 1020193
21:00+11сз238399 0.9 102087
14 апреля, ср
ср1400:00+8з348687 0.0 102066
03:00+7зюз228778 0.0 101927
06:00+6зюз118940 0.0 101810
09:00+11в237320 0.0 1018429
12:00+15юв3349100 0.0 10161026
15:00+17юв664192 0.0 10151645
18:00+14ююв5754100 0.0 1014572
21:00+11вюв336487 0.0 101559
15 апреля, чт
чт1500:00+10вюв237081 0.0 1014106
03:00+10юв1169100 0.0 101435
06:00+8зюз1172100 0.0 101414
09:00+9юз5688100 1.3 1014300
12:00+11ююв3383100 5.6 1014338
15:00+12зюз4578100 5.8 1014736
18:00+11зюз688189 0.4 1014671
21:00+8зюз4109171 0.4 1015372
16 апреля, пт
пт1600:00+7зюз5118978 0.0 1014389
03:00+8ююз61287100 0.0 1014548
06:00+8юз61193100 0.5 1014683
09:00+8юз61090100 0.6 1015823
12:00+9зюз71186100 0.1 1016963
15:00+11зюз10126767 0.2 10161295
18:00+9зюз8117779 0.1 1017987
21:00+7зюз61078100 0.1 10181098